COSMOS 532

Satellite information

Favourite Embed

Satellite Type and Status

PAYLOADIN ORBIT

Key statistics

Satellite COSMOS 532 at a glance.

Uptime

19359

Days in orbit

Revolutions

≈ 12.7

Per day

Orbit

LEO

Low Earth Orbit

Inclination

74.0

Latest

Satellite identification and parameters

Extended collection of information and parameters for COSMOS 532.

Object identification

Identified? True

Debris? False

Object name: COSMOS 532

International designator: 1972-087E

Object number (NORAD): 6267

Object ID (CCSDS): 6267

Country: COMMONWEALTH OF INDEPENDENT STATES (CIS)

Current information (Y/N): Y

RCS size: MEDIUM

Orbital parameters

Period: 113.409 minutes

Inclination: 74.037 deg

SMA: 7761.151 km

Apoapsis: 1466.41 km

Periapsis: 1299.623 km

RAAN: 50.6832 deg

Eccentricy: 0.01074502

Argument of periapsis: 143.8806 deg

Mean anomaly: 291.3075 deg

Mean motion: 12.69736306 rev/day

Mean motion (dot): -0.00000018 rev/day2

B* drag term: -0.000010844858 1/REarth

Two-line elements (TLE)

Creation date: Nov. 1, 2025, 7:40 p.m.

Reference frame: TEME

Reference center: EARTH

Epoch: Nov. 1, 2025, 11:13 a.m. UTC

TLE line 0: 0 COSMOS 532

TLE line 1: 1 06267U 72087E 25305.46773505 -.00000018 00000-0 -10845-4 0 9990

TLE line 2: 2 06267 74.0370 50.6832 0107450 143.8806 291.3075 12.69736306456392

Live tracking on map

Real-time ground track for satellite COSMOS 532.

In-orbit conjunctions

A list of the most updated potential collisions computed for object COSMOS 532.

Target Orbit TCA Probability of collision Miss distance Type
DELTA 1 DEB SSO 2025-08-19 23:00:26 0.0001867014 331.0 (m) DEBRIS
DELTA 1 DEB SSO 2024-05-27 06:20:20 0.0003055186 382.0 (m) DEBRIS

Associated space launch

Military communications satellites

COSMOS 532 was lifted into orbit during the mission ‘Kosmos-3M | Strela-1M 33-40’, on board a Kosmos-3M space rocket.

The launch took place on Nov. 1, 1972, 2:08 a.m. from 132/2.

For more information about the launch, click the button.

Launch to space Kosmos-3M | Strela-1M 33-40
Kosmos-3M | Strela-1M 33-40

Agency: N/A

Status: Launch Successful

Launch date: Nov. 1, 1972, 2:08 a.m. UTC

Rocket: Kosmos-3M

Launch pad: 132/2

Location: Plesetsk Cosmodrome, Russian Federation

...

Latest news about this satellite

There are no fresh news available about this satellite. Check back as we update our databases every day.


Newsletter sign-up

Weekly statistics, charts and insights to help you stay on top of the space industry.